Location: Unnamed
(51.5169°N, 0.1311°W)
Time: 07:26:00
(UTC+01:00)

Vanguard 1 - Pass Details

Date: 15 August 2024
Orbit: 649 x 3825 km, 34.2° (Epoch: 16 September)

Event Time Altitude Azimuth Distance (km) Brightness Sun altitude
Rises 00:46:13 0° 247° (WSW) 4,510 13.3 -24.4°
Reaches altitude 10° 00:49:00 10° 238° (WSW) 3,869 12.8 -24.4°
Maximum altitude 00:58:33 37° 176° (S) 3,275 12.1 -24.5°
Drops below altitude 10° 01:14:12 10° 119° (ESE) 6,304 13.9 -24.5°
Sets 01:20:24 0° 113° (ESE) 7,666 14.4 -24.4°
